Weather reports worldwide

Advertisment
Brodersby-Schönhagen, Germany (10042): temperature & dewpoint: 13.01.2021 06:00:00 - 19.01.2021 06:00:00 (CET)Brodersby-Schönhagen, Germany (10042): temperature 5cm & temperature -5cm: 13.01.2021 06:00:00 - 19.01.2021 06:00:00 (CET)Brodersby-Schönhagen, Germany (10042): temperature -20cm & temperature -100cm: 13.01.2021 06:00:00 - 19.01.2021 06:00:00 (CET)Brodersby-Schönhagen, Germany (10042): wind speed & gusts: 13.01.2021 06:00:00 - 19.01.2021 06:00:00 (CET)Brodersby-Schönhagen, Germany (10042): wind direction: 13.01.2021 06:00:00 - 19.01.2021 06:00:00 (CET)Brodersby-Schönhagen, Germany (10042): reduced air pressure: 13.01.2021 06:00:00 - 19.01.2021 06:00:00 (CET)Brodersby-Schönhagen, Germany (10042): visibility: 13.01.2021 06:00:00 - 19.01.2021 06:00:00 (CET)Brodersby-Schönhagen, Germany (10042): sunshine duration: 13.01.2021 06:00:00 - 19.01.2021 06:00:00 (CET)Brodersby-Schönhagen, Germany (10042): precipitation: 13.01.2021 06:00:00 - 19.01.2021 06:00:00 (CET)
Date & Time tt [°C] td [°C] tt 5cm [°C] tt -5cm [°C] tt -20cm [°C] tt -100cm [°C] ff [km/h] ff [kn] fx [km/h] fx [kn] dd ppp [hPa] vv [km] sd [min] rr [mm]
19.01.2021 06:00:00 3,9 2,9 3,3 2,3 2,0 5,4 14 8 32 17 S 1007,0 13 0 0,0
19.01.2021 05:00:00 4,0 3,0 3,3 2,2 1,9 5,4 23 12 41 22 SW 1008,1 24 0 0,0
19.01.2021 04:00:00 4,2 3,2 3,5 2,1 1,8 5,4 22 12 36 19 SW 1008,7 21 0 0,0
19.01.2021 03:00:00 4,1 3,6 3,6 1,9 1,7 5,4 18 10 31 17 SW 1009,8 12 0 0,3
19.01.2021 02:00:00 3,9 3,2 3,4 1,6 1,6 5,4 21 12 32 17 SW 1010,2 18 0 0,0
19.01.2021 01:00:00 3,6 2,9 2,9 1,2 1,6 5,4 22 12 29 15 SW 1010,8 31 0 0,0
19.01.2021 00:00:00 2,6 2,1 1,6 1,2 1,6 5,4 16 9 25 13 SW 1011,1 30 0 0,0
18.01.2021 23:00:00 3,2 2,7 2,2 1,4 1,5 5,4 19 10 29 16 WSW 1011,3 34 0 0,0
18.01.2021 22:00:00 3,7 3,1 3,0 1,5 1,4 5,4 16 9 25 14 WSW 1011,4 33 0 0,0
18.01.2021 21:00:00 4,2 3,8 3,6 1,4 1,3 5,4 14 8 19 11 WSW 1011,5 22 0 0,1
18.01.2021 20:00:00 4,2 3,8 3,6 1,1 1,2 5,4 14 8 28 15 WSW 1011,4 22 0 0,0
18.01.2021 19:00:00 4,6 4,1 4,0 0,7 1,1 5,4 19 10 28 15 WSW 1011,4 24 0 0,1
18.01.2021 18:00:00 4,4 3,9 3,8 0,3 1,1 5,4 21 11 30 16 WSW 1011,4 18 0 0,1
18.01.2021 17:00:00 4,2 3,7 3,5 0,2 1,1 5,4 18 10 29 16 SW 1011,6 8 0 0,3
18.01.2021 16:00:00 4,0 3,6 3,5 0,2 1,1 5,4 20 11 29 16 WSW 1011,8 16 0 0,9
18.01.2021 15:00:00 3,9 3,4 3,3 0,2 1,1 5,5 22 12 34 18 SW 1012,1 13 0 0,9
18.01.2021 14:00:00 3,1 2,6 2,7 0,2 1,1 5,5 19 10 26 14 SW 1012,8 13 0 0,4
18.01.2021 13:00:00 2,6 2,1 2,3 0,2 1,1 5,5 14 8 27 15 SSW 1013,9 15 0 0,5
18.01.2021 12:00:00 2,7 2,3 2,2 0,2 1,1 5,5 16 9 29 15 SSW 1014,8 9 0 0,1
18.01.2021 11:00:00 2,3 2,3 2,0 0,2 1,1 5,5 19 11 26 14 SW 1015,6 6 0 0,0
18.01.2021 10:00:00 1,4 1,4 1,2 0,2 1,1 5,5 14 8 22 12 SSW 1016,0 1,4 0 0,0
18.01.2021 09:00:00 0,6 0,6 0,4 0,2 1,1 5,5 16 9 24 13 SW 1016,6 3,7 0 0,0
18.01.2021 08:00:00 0,3 0,3 0,2 0,2 1,1 5,5 19 10 26 14 SW 1016,7 1,2 0 0,0
18.01.2021 07:00:00 0,0 0,0 -0,1 0,2 1,1 5,5 14 8 19 11 SW 1016,7 0,5 0 0,0
18.01.2021 06:00:00 -0,1 -0,2 -0,2 0,2 1,1 5,5 12 6 17 9 SW 1017,3 0,8 0 0,0
18.01.2021 05:00:00 -0,3 -0,9 -0,5 0,2 1,1 5,5 10 6 16 9 SSW 1017,5 4,1 0 0,0
18.01.2021 04:00:00 -0,5 -1,3 -0,7 0,2 1,1 5,5 9 5 16 8 S 1017,8 6 0 0,1
18.01.2021 03:00:00 -0,6 -1,9 -0,7 0,2 1,1 5,5 10 6 16 9 S 1018,2 4,8 0 0,0
18.01.2021 02:00:00 -0,6 -2,2 -0,7 0,2 1,1 5,5 10 6 16 9 S 1018,5 11 0 0,0
18.01.2021 01:00:00 -0,6 -2,6 -0,7 0,2 1,1 5,5 10 5 16 9 SSW 1018,9 16 0 0,0
18.01.2021 00:00:00 -0,8 -2,5 -1,0 0,2 1,1 5,5 9 5 16 9 SSW 1019,4 13 0 0,0
17.01.2021 23:00:00 -0,5 -3,4 -0,7 0,2 1,2 5,5 10 5 18 10 S 1019,6 23 0 0,0
17.01.2021 22:00:00 -0,5 -3,7 -0,8 0,2 1,2 5,6 12 6 23 12 S 1019,8 27 0 0,0
17.01.2021 21:00:00 -0,4 -3,9 -0,7 0,2 1,2 5,6 12 7 24 13 S 1020,0 31 0 0,0
17.01.2021 20:00:00 -0,4 -3,8 -0,8 0,2 1,2 5,6 14 7 23 13 S 1020,1 26 0 0,0
17.01.2021 19:00:00 -0,1 -3,7 -0,8 0,2 1,2 5,6 16 9 23 12 S 1020,1 28 0 0,0
17.01.2021 18:00:00 0,2 -3,4 -0,2 0,2 1,2 5,6 12 7 19 11 SSE 1020,0 25 0 0,0
17.01.2021 17:00:00 0,1 -3,8 -0,6 0,2 1,2 5,6 10 6 17 9 SSE 1019,9 30 0 0,0
17.01.2021 16:00:00 0,1 -3,8 -0,6 0,2 1,2 5,6 9 5 16 9 S 1019,5 29 14 0,0
17.01.2021 15:00:00 0,8 -3,7 1,2 0,2 1,2 5,6 13 7 21 11 SSE 1019,1 30 60 0,0
17.01.2021 14:00:00 1,0 -3,7 1,7 0,2 1,2 5,6 12 6 22 12 S 1019,1 26 59 0,0
17.01.2021 13:00:00 0,8 -2,5 1,7 0,2 1,2 5,6 13 7 19 11 S 1019,2 18 35 0,0
17.01.2021 12:00:00 0,4 -2,3 1,7 0,1 1,2 5,6 13 7 19 11 SSE 1019,3 14 34 0,0
17.01.2021 11:00:00 -0,1 -2,4 0,8 0,1 1,2 5,6 13 7 20 11 SSE 1019,2 12 47 0,0
17.01.2021 10:00:00 -0,9 -2,4 -1,5 0,1 1,2 5,6 9 5 20 11 S 1018,6 11 0 0,0
17.01.2021 09:00:00 -0,9 -2,4 -2,0 0,1 1,2 5,6 12 6 21 12 S 1017,9 10 0 0,0
17.01.2021 08:00:00 -1,2 -2,7 -2,4 0,2 1,2 5,6 10 6 17 9 S 1017,4 12 0 0,0
17.01.2021 07:00:00 -0,9 -2,6 -2,4 0,2 1,2 5,6 10 5 16 9 S 1017,2 15 0 0,0
17.01.2021 06:00:00 -0,5 -2,1 -1,4 0,2 1,2 5,7 9 5 21 11 S 1017,1 14 0 0,0
17.01.2021 05:00:00 -0,3 -2,1 -1,0 0,2 1,2 5,7 11 6 15 8 SSE 1017,1 17 0 0,0
17.01.2021 04:00:00 -0,7 -2,3 -1,3 0,2 1,3 5,7 8 4 13 7 SSE 1017,2 16 0 0,0
17.01.2021 03:00:00 -0,6 -2,2 -1,2 0,2 1,3 5,7 10 5 13 7 S 1017,3 15 0 0,0
17.01.2021 02:00:00 -1,2 -3,0 -2,2 0,3 1,3 5,7 7 4 11 6 S 1017,4 17 0 0,0
17.01.2021 01:00:00 -1,4 -3,2 -2,5 0,3 1,3 5,7 5 3 12 7 S 1017,8 19 0 0,0
17.01.2021 00:00:00 -1,3 -3,3 -2,2 0,3 1,3 5,7 7 4 14 7 S 1018,2 22 0 0,0
16.01.2021 23:00:00 -0,8 -3,1 -1,4 0,3 1,3 5,7 8 4 15 8 SSW 1018,4 23 0 0,0
16.01.2021 22:00:00 -0,5 -3,4 -0,8 0,3 1,3 5,7 8 5 15 8 S 1018,8 28 0 0,0
16.01.2021 21:00:00 -0,5 -3,3 -0,8 0,3 1,3 5,7 6 3 15 8 SSE 1019,2 29 0 0,0
16.01.2021 20:00:00 -0,3 -3,1 -0,6 0,3 1,3 5,7 9 5 12 6 S 1019,4 26 0 0,0
16.01.2021 19:00:00 -0,2 -3,0 -0,5 0,3 1,3 5,7 10 5 15 8 S 1019,7 27 0 0,0
16.01.2021 18:00:00 -0,1 -3,1 -0,5 0,3 1,3 5,7 7 4 11 6 S 1020,0 32 0 0,0
16.01.2021 17:00:00 -0,1 -3,3 -0,5 0,3 1,3 5,7 7 4 13 7 S 1020,6 37 0 0,0
16.01.2021 16:00:00 0,0 -3,1 -0,5 0,3 1,3 5,7 8 4 14 7 SSW 1021,2 31 10 0,0
16.01.2021 15:00:00 0,3 -3,5 0,2 0,3 1,3 5,7 10 6 16 9 SSW 1021,5 46 31 0,0
16.01.2021 14:00:00 0,4 -3,9 0,2 0,3 1,3 5,7 9 5 15 8 SW 1022,3 47 53 0,0
16.01.2021 13:00:00 0,4 -4,2 1,1 0,3 1,3 5,8 12 7 17 9 SW 1023,1 42 60 0,0
16.01.2021 12:00:00 -0,1 -4,0 0,9 0,3 1,4 5,8 12 7 16 9 SW 1023,9 41 60 0,0
16.01.2021 11:00:00 -0,9 -3,6 -0,3 0,2 1,4 5,8 7 4 13 7 SSW 1024,6 30 2 0,0
16.01.2021 10:00:00 -1,7 -3,3 -1,7 0,2 1,4 5,8 7 4 11 6 WSW 1025,1 34 0 0,0
16.01.2021 09:00:00 -2,3 -3,5 -2,3 0,3 1,4 5,8 8 4 10 5 WSW 1025,2 26 0 0,0
16.01.2021 08:00:00 -3,7 -4,6 -4,9 0,3 1,4 5,8 7 4 9 5 WSW 1025,4 26 0 0,0
16.01.2021 07:00:00 -3,1 -4,5 -4,2 0,3 1,4 5,8 7 4 12 7 WSW 1025,9 35 0 0,0
16.01.2021 06:00:00 -2,0 -4,1 -3,0 0,3 1,4 5,8 9 5 15 8 WNW 1026,5 46 0 0,0
16.01.2021 05:00:00 -2,1 -4,2 -2,4 0,4 1,5 5,8 10 5 13 7 W 1026,7 40 0 0,0
16.01.2021 04:00:00 -2,3 -4,8 -4,0 0,4 1,5 5,8 10 6 21 11 WNW 1026,9 45 0 0,0
16.01.2021 03:00:00 -0,8 -4,0 -1,3 0,4 1,5 5,8 11 6 18 10 WNW 1027,4 50 0 0,0
16.01.2021 02:00:00 -0,8 -4,6 -1,1 0,4 1,5 5,8 13 7 18 10 W 1027,4 61 0 0,0
16.01.2021 01:00:00 -0,9 -4,5 -1,2 0,4 1,5 5,8 11 6 17 9 W 1027,8 45 0 0,0
16.01.2021 00:00:00 -0,6 -4,9 -0,8 0,4 1,5 5,8 13 7 18 10 W 1028,1 58 0 0,0
15.01.2021 23:00:00 -0,8 -4,6 -1,1 0,4 1,5 5,8 11 6 16 9 W 1028,1 47 0 0,0
15.01.2021 22:00:00 -0,8 -4,9 -1,1 0,4 1,5 5,8 11 6 26 14 W 1028,1 58 0 0,0
15.01.2021 21:00:00 -0,1 -5,8 -0,6 0,4 1,6 5,8 15 8 25 13 NNW 1028,3 74 0 0,0
15.01.2021 20:00:00 -0,4 -5,8 -0,9 0,5 1,6 5,9 18 10 29 15 N 1028,4 71 0 0,0
15.01.2021 19:00:00 -0,9 -6,2 -1,2 0,5 1,6 5,9 18 10 26 14 N 1028,4 63 0 0,0
15.01.2021 18:00:00 -0,8 -5,6 -1,1 0,5 1,6 5,9 14 8 21 12 NNW 1028,4 60 0 0,0
15.01.2021 17:00:00 -0,6 -5,5 -1,0 0,5 1,6 5,9 15 8 32 17 NNW 1028,1 69 0 0,0
15.01.2021 16:00:00 -0,5 -5,1 -0,8 0,5 1,6 5,9 17 9 27 15 NNW 1027,9 62 0 0,0
15.01.2021 15:00:00 -0,4 -5,9 -0,6 0,5 1,6 5,9 16 9 26 14 N 1027,7 71 0 0,0
15.01.2021 14:00:00 -0,6 -6,1 -0,5 0,5 1,7 5,9 17 9 32 17 N 1027,6 75 0 0,0
15.01.2021 13:00:00 -0,6 -5,8 -0,5 0,5 1,7 5,9 19 10 29 16 N 1027,6 75 0 0,0
15.01.2021 12:00:00 -0,5 -4,9 -0,5 0,5 1,7 5,9 22 12 33 18 NNE 1027,5 75 0 0,0
15.01.2021 11:00:00 -0,2 -5,3 -0,4 0,6 1,7 5,9 22 12 34 18 NNE 1027,3 66 0 0,0
15.01.2021 10:00:00 -0,3 -5,1 -0,6 0,6 1,7 5,9 23 12 31 17 NNE 1026,6 35 0 0,0
15.01.2021 09:00:00 -0,2 -5,2 -0,6 0,6 1,8 5,9 21 11 36 19 N 1026,3 72 0 0,1
15.01.2021 08:00:00 -0,2 -4,3 -0,5 0,6 1,8 5,9 19 10 31 17 NNW 1025,6 58 0 0,0
15.01.2021 07:00:00 0,0 -4,0 -0,3 0,6 1,8 5,9 18 10 33 18 N 1025,2 64 0 0,0
15.01.2021 06:00:00 0,1 -3,9 -0,3 0,7 1,9 5,9 18 10 29 16 NNW 1024,8 51 0 0,0
15.01.2021 05:00:00 0,0 -2,6 -0,3 0,7 1,9 5,9 19 10 26 14 NNW 1024,7 36 0 0,0
15.01.2021 04:00:00 0,3 -3,5 -0,1 0,7 2,0 5,9 17 9 27 14 NNW 1024,6 42 0 0,0
15.01.2021 03:00:00 0,3 -3,1 0,0 0,8 2,0 5,9 18 10 31 17 NNW 1024,5 51 0 0,0
15.01.2021 02:00:00 0,5 -2,9 0,1 0,9 2,1 5,9 20 11 31 17 NNW 1024,4 53 0 0,0
15.01.2021 01:00:00 0,6 -2,4 0,3 1,1 2,1 5,9 23 12 34 18 N 1024,4 60 0 0,0
15.01.2021 00:00:00 1,0 -1,9 0,6 1,2 2,2 6,0 21 12 33 18 N 1024,2 58 0 0,0
14.01.2021 23:00:00 1,4 -1,5 1,0 1,4 2,2 6,0 26 14 34 18 N 1023,8 67 0 0,0
14.01.2021 22:00:00 1,8 -0,1 1,4 1,4 2,2 6,0 18 10 27 15 NE 1023,7 45 0 0,0
14.01.2021 21:00:00 1,8 0,2 1,5 1,4 2,2 6,0 17 9 24 13 NNE 1023,4 32 0 0,0
14.01.2021 20:00:00 2,1 -0,8 1,6 1,4 2,2 6,0 17 9 25 14 NE 1023,0 56 0 0,0
14.01.2021 19:00:00 2,2 -0,8 1,7 1,5 2,2 6,0 21 11 27 14 NE 1022,8 46 0 0,0
14.01.2021 18:00:00 2,1 -1,1 1,6 1,5 2,2 6,0 23 13 29 16 NE 1022,7 48 0 0,0
14.01.2021 17:00:00 2,2 -1,1 1,8 1,7 2,2 6,0 22 12 30 16 NNE 1022,3 65 0 0,0
14.01.2021 16:00:00 2,3 -0,4 2,0 1,8 2,2 6,0 25 13 32 17 NNE 1021,8 52 0 0,0
14.01.2021 15:00:00 2,2 -0,2 2,0 1,7 2,1 6,0 18 10 29 16 N 1021,2 51 0 0,0
14.01.2021 14:00:00 2,2 -0,8 2,0 1,7 2,1 6,0 18 10 29 16 N 1021,2 59 0 0,0
14.01.2021 13:00:00 2,1 -1,7 2,0 1,5 2,0 6,0 24 13 31 17 NNE 1021,2 62 0 0,0
14.01.2021 12:00:00 1,7 -0,3 1,6 1,4 2,0 6,0 16 8 31 17 N 1021,0 41 0 0,0
14.01.2021 11:00:00 1,4 -0,5 1,3 1,2 1,9 6,0 19 10 34 19 N 1020,6 45 0 0,0
14.01.2021 10:00:00 1,0 -0,7 0,8 1,0 1,9 6,0 22 12 38 20 N 1020,0 39 0 0,0
14.01.2021 09:00:00 1,3 -1,5 0,9 1,0 1,9 6,0 27 15 38 21 N 1019,1 52 0 0,0
14.01.2021 08:00:00 1,6 -0,9 1,1 0,9 1,9 6,0 23 12 41 22 N 1018,2 61 0 0,0
14.01.2021 07:00:00 1,7 -1,0 0,8 0,8 2,0 6,0 29 16 44 24 N 1017,4 50 0 0,0
14.01.2021 06:00:00 1,7 -0,8 0,7 0,9 2,0 6,1 33 18 48 26 N 1016,5 49 0 0,0
14.01.2021 05:00:00 2,1 -1,0 1,0 0,9 2,0 6,1 38 21 51 28 N 1015,6 50 0 0,0
14.01.2021 04:00:00 2,1 -1,0 0,5 0,9 2,0 6,1 35 19 56 30 NNE 1014,7 47 0 0,0
14.01.2021 03:00:00 2,1 -1,0 0,8 1,2 2,0 6,1 41 22 58 31 NNE 1013,7 47 0 0,0
14.01.2021 02:00:00 1,9 0,2 1,2 1,1 2,0 6,1 40 22 61 33 N 1012,4 38 0 0,2
14.01.2021 01:00:00 1,2 0,3 0,7 1,0 2,0 6,1 39 21 59 32 N 1011,2 8 0 0,7
14.01.2021 00:00:00 1,4 -0,6 0,9 1,0 2,0 6,1 38 21 63 34 N 1009,8 4,4 0 0,0
13.01.2021 23:00:00 2,1 -1,2 1,5 0,9 2,1 6,1 38 21 59 32 NNW 1008,4 49 0 0,0
13.01.2021 22:00:00 1,7 -1,4 1,2 0,8 2,1 6,1 36 19 58 31 NNW 1007,3 38 0 0,0
13.01.2021 21:00:00 1,5 -2,2 0,8 0,8 2,2 6,1 42 23 66 35 NNW 1006,1 49 0 0,0
13.01.2021 20:00:00 1,5 -1,9 1,0 1,0 2,2 6,1 35 19 52 28 NNW 1005,3 59 0 0,0
13.01.2021 19:00:00 1,2 -1,9 0,6 1,0 2,3 6,1 30 16 56 30 NW 1004,5 70 0 0,0
13.01.2021 18:00:00 1,1 -2,1 0,6 1,1 2,4 6,1 35 19 53 29 NW 1003,9 61 0 0,0
13.01.2021 17:00:00 0,7 -2,8 0,3 1,3 2,5 6,1 34 19 59 32 NW 1003,4 75 0 0,0
13.01.2021 16:00:00 1,5 -2,0 0,6 1,9 2,5 6,1 40 22 61 33 NW 1002,0 75 27 0,0
13.01.2021 15:00:00 2,2 -0,6 2,1 2,3 2,4 6,1 41 22 59 32 NNW 1000,8 75 10 0,0
13.01.2021 14:00:00 3,5 0,3 3,1 1,9 2,3 6,1 33 18 49 26 W 999,0 37 7 0,0
13.01.2021 13:00:00 1,9 1,2 1,6 1,7 2,3 6,1 26 14 42 23 WSW 999,7 55 0 0,7
13.01.2021 12:00:00 1,7 1,2 1,4 1,6 2,2 6,1 24 13 46 25 W 1000,9 38 0 3,5
13.01.2021 11:00:00 3,4 1,7 2,6 1,6 2,2 6,1 33 18 64 34 W 1001,0 12 0 0,7
13.01.2021 10:00:00 2,9 0,5 2,5 1,2 2,1 6,1 29 16 41 22 WSW 1001,8 40 0 0,0
13.01.2021 09:00:00 1,9 0,5 1,4 0,9 2,2 6,1 26 14 41 22 WSW 1002,8 51 0 0,0
13.01.2021 08:00:00 2,0 0,3 1,3 0,9 2,2 6,1 29 16 44 24 W 1003,2 50 0 0,0
13.01.2021 07:00:00 2,1 0,2 1,1 0,9 2,2 6,1 32 17 51 28 W 1003,3 56 0 0,0
13.01.2021 06:00:00 2,4 0,7 1,2 0,8 2,3 6,1 27 15 46 25 W 1003,7 16 0 0,1

tt = temperature
td = dewpoint
tt 5cm = temperature 5cm
tt -5cm = temperature -5cm
tt -20cm = temperature -20cm
tt -100cm = temperature -100cm
ff = wind speed
fx = gusts
dd = wind direction
ppp = reduced air pressure
vv = visibility
sd = sunshine duration
rr = precipitation

Next stations